Torna al catalogo

STARLINK-34155

AttivoComunicazioniVLEO
NORAD 64019·PAYLOAD·🇺🇸 United States

Lanciato May 14, 2025 da Cape Canaveral Space Force Station

Loading…

Prossimi Passaggi (prossime 24 ore)

TLE

AggiornatoSource: CelesTrak SupGP

Epoca: Sep 15, 2026, 02:30 UTC

1 64019C 25101AB  26258.10465278  .00011753  00000+0  42576-3 0  2586
2 64019  43.0036   8.3727 0001510 268.4416  40.8804 15.27568609    17

Traccia STARLINK-34155 in tempo reale con AllMySat

Download on the App Store